Date,TemperatureHighF,TemperatureAvgF,TemperatureLowF,DewpointHighF,DewpointAvgF,DewpointLowF,HumidityHigh,HumidityAvg,HumidityLow,PressureMaxIn,PressureMinIn,WindSpeedMaxMPH,WindSpeedAvgMPH,GustSpeedMaxMPH,PrecipitationSumIn
2013-8-1,89,84,80,77,75,73,81,74,65,30.05,29.93,12,3,0,0.00
2013-8-2,91,82,76,80,75,73,92,81,63,30.06,29.91,6,0,0,0.00
2013-8-3,88,78,75,80,75,72,95,91,69,30.12,30.02,3,0,0,0.00
2013-8-4,92,82,75,80,76,73,96,84,64,30.11,29.98,4,0,0,0.00
2013-8-5,89,80,75,80,76,73,96,88,67,30.04,29.95,10,1,0,0.00
2013-8-6,94,82,74,80,76,73,96,81,60,29.99,29.88,7,0,0,0.00
2013-8-7,90,83,78,80,76,74,92,82,66,29.98,29.90,9,1,0,0.00
2013-8-8,91,85,81,79,76,71,82,74,64,30.01,29.92,10,2,0,0.00
2013-8-9,86,83,80,78,75,71,86,77,69,30.06,29.95,7,1,0,0.00
2013-8-10,91,85,82,79,77,75,83,76,66,30.11,30.03,7,3,0,0.00
2013-8-11,91,85,82,79,77,75,83,76,68,30.13,30.06,11,3,0,0.00
2013-8-12,89,85,81,78,75,73,82,74,64,30.10,30.01,10,3,0,0.00
2013-8-13,90,84,78,79,76,74,94,78,65,30.04,29.96,7,1,0,0.00
2013-8-14,92,84,76,78,76,74,93,78,61,30.02,29.93,5,0,0,0.00
2013-8-15,88,81,77,79,76,74,94,87,73,30.06,29.95,1,0,0,0.00
2013-8-16,91,84,78,80,78,76,95,83,67,30.05,29.97,6,1,0,0.00
2013-8-17,91,85,81,80,78,75,91,79,65,30.07,29.99,9,2,0,0.00
2013-8-18,90,85,81,81,78,76,87,79,70,30.08,29.98,10,3,0,0.00
2013-8-19,91,84,78,80,77,75,93,79,65,30.07,29.96,8,2,0,0.00
2013-8-20,90,85,81,79,76,74,89,76,66,30.05,29.98,11,2,0,0.00
2013-8-21,90,83,78,81,78,74,92,84,73,30.06,29.99,12,2,0,0.00
2013-8-22,90,85,79,80,78,75,92,79,70,30.06,29.95,11,2,0,0.00
2013-8-23,91,84,81,80,77,74,85,78,67,30.01,29.93,7,1,0,0.00
2013-8-24,92,85,79,79,77,75,91,77,62,30.10,29.96,9,1,0,0.00
2013-8-25,87,83,79,77,76,73,91,80,70,30.14,30.02,11,2,0,0.00
2013-8-26,87,80,76,79,75,72,94,83,73,30.11,30.01,6,0,0,0.00
2013-8-27,84,79,75,76,74,72,95,85,70,30.05,29.96,4,0,0,0.00
2013-8-28,88,81,75,77,75,71,93,82,65,30.04,29.94,5,0,0,0.00
2013-8-29,91,83,75,79,76,73,94,81,65,30.02,29.93,6,1,0,0.00
2013-8-30,93,83,75,78,75,73,94,78,55,30.01,29.90,6,0,0,0.00
2013-8-31,91,80,74,79,74,68,93,83,66,29.98,29.92,7,0,0,0.00